RH
88 88 87 86 85 84 83 83 83 81 78 75 71 68 67 65 64 62 60 58 57 56 57 59 61 65 66 66 66 65 65 63 61 59 58 57 55 55 55 57 56 55 54 52 48 43 41 40 42 43 44 46
87 87 88 87 85 84 83 83 84 84 83 82 78 74 71 68 65 63 61 60 59 58 58 58 59 62 65 66 67 66 66 66 66 65 65 64 63 62 62 63 63 61 58 54 51 47 44 42 41 42 43 45
96 93 91 90 88 87 86 85 84 84 85 86 86 84 81 78 76 73 70 68 66 65 64 64 64 64 65 66 67 67 66 66 66 66 66 66 65 65 64 65 67 67 64 59 54 50 46 43 41 41 42 43
107 104 100 97 94 92 90 89 87 87 87 87 88 88 88 87 86 84 82 80 77 75 73 71 69 68 67 66 65 65 65 66 66 66 66 65 65 64 64 64 67 70 71 67 60 55 50 44 41 40 41 41
110 109 108 104 100 98 95 92 89 87 86 85 85 85 85 85 85 85 83 82 80 79 78 76 74 72 71 70 68 68 67 66 66 65 64 64 64 64 64 64 65 69 74 75 71 64 59 53 47 43 41 41
104 106 108 107 104 105 103 100 98 93 90 87 84 82 81 80 80 80 78 77 75 74 73 73 73 72 71 71 70 69 69 67 66 64 62 61 61 61 62 63 64 66 71 78 81 77 70 64 59 55 50 47
91 94 97 99 101 102 100 101 103 99 97 93 88 83 81 80 77 77 76 75 75 73 71 71 71 69 69 69 68 68 68 68 67 66 64 62 61 61 61 61 62 64 67 74 83 87 85 77 70 67 64 61
84 84 84 87 89 91 91 93 97 95 96 96 93 89 86 84 80 77 75 74 75 75 75 75 74 72 70 69 67 67 68 68 69 69 69 68 67 66 65 63 63 64 66 69 76 85 92 92 86 78 74 72
88 86 85 86 85 86 87 88 91 92 95 96 96 95 93 92 89 85 81 78 77 75 75 76 77 77 76 75 73 71 70 70 70 71 72 73 74 74 73 72 70 68 68 69 73 79 88 97 100 95 87 82
88 87 87 87 87 88 88 89 90 92 95 96 97 98 98 98 98 95 93 90 88 84 81 79 78 78 79 80 81 80 79 79 78 78 79 80 81 81 82 81 80 78 76 75 76 80 86 93 101 105 102 96
81 81 81 81 81 82 82 83 84 86 89 91 93 96 98 99 100 99 99 98 97 95 93 90 87 84 83 83 83 83 83 84 85 86 87 88 90 91 92 91 91 90 88 86 85 86 90 94 99 103 105 104
76 77 77 78 78 78 78 78 78 79 80 82 84 87 90 93 95 96 98 98 98 98 98 98 97 95 94 92 91 89 88 87 86 86 87 89 91 94 96 98 98 98 97 96 95 95 96 100 103 103 103 106
75 75 75 75 76 76 76 76 76 76 77 77 78 79 80 81 83 85 88 90 92 94 95 97 98 98 99 98 98 97 96 95 92 90 89 88 88 89 91 95 98 99 99 98 97 96 96 99 103 104 105 108
84 83 81 80 79 78 77 76 74 73 73 73 72 72 72 73 73 74 76 77 79 81 83 85 87 88 92 94 95 97 98 98 99 98 97 95 93 91 89 89 91 93 95 96 96 95 93 92 94 96 99 103
92 90 89 88 87 86 83 81 78 75 73 71 70 69 68 67 66 66 67 67 68 69 70 71 72 73 75 78 80 82 85 89 91 94 97 98 99 98 97 95 93 91 90 90 92 93 93 91 89 88 88 89
92 91 90 90 89 87 86 84 81 79 77 75 74 72 70 69 68 67 65 65 64 64 64 64 64 64 64 64 65 66 67 70 72 75 80 84 88 92 95 97 98 97 96 94 92 91 90 90 89 87 86 84
84 83 83 82 81 79 78 77 77 76 75 74 73 71 70 69 68 68 66 66 66 64 64 63 62 62 61 60 60 60 60 60 60 61 63 65 68 71 75 79 83 88 92 95 97 95 92 91 89 86 86 86
81 80 80 80 80 79 79 78 78 78 77 77 77 75 74 72 71 69 68 66 65 64 63 62 61 60 60 59 58 58 57 57 57 57 57 57 58 59 60 62 64 67 71 75 81 85 88 90 90 88 86 85
78 78 78 78 78 78 78 77 77 77 77 77 78 79 79 78 77 76 74 73 71 69 67 65 63 62 60 59 58 57 57 56 56 55 55 55 55 55 56 56 56 57 58 60 62 64 68 73 77 80 83 84
65 65 64 64 64 64 63 63 63 63 63 64 65 65 66 67 68 69 69 69 69 68 67 67 66 65 63 61 60 59 58 58 57 56 55 54 54 53 53 53 53 53 54 55 55 56 56 58 61 64 68 72
62 61 60 59 58 57 56 55 54 54 53 53 53 53 53 53 53 54 55 55 56 57 57 58 58 58 58 57 57 57 56 56 56 55 55 55 54 54 54 53 53 52 51 51 51 52 52 53 54 55 57 58
64 61 58 56 53 51 49 47 45 44 43 42 42 41 41 41 41 41 41 42 42 43 43 44 44 45 45 45 46 46 47 47 48 48 49 50 50 51 52 52 52 52 52 52 51 50 50 49 49 50 51 52
51 48 45 42 40 39 37 36 35 34 33 33 32 32 31 31 31 30 30 31 31 31 31 31 31 31 31 32 32 32 33 34 34 35 36 38 39 40 42 43 45 46 48 49 50 50 50 49 48 47 47 47
37 35 34 33 33 33 32 31 30 30 29 29 28 28 28 27 27 26 26 25 25 25 24 24 24 24 24 24 24 24 24 24 24 24 25 25 26 27 28 30 31 33 35 38 40 42 44 45 46 46 46 46
33 33 33 33 33 32 32 32 31 31 31 31 31 31 30 30 29 28 28 27 27 26 25 25 25 25 25 24 24 24 23 23 22 22 22 21 21 21 21 21 21 22 23 24 26 28 30 33 36 38 40 42
35 36 36 36 36 35 35 34 34 34 34 34 34 34 33 32 31 30 30 30 29 28 28 27 27 27 26 26 26 26 25 25 25 24 24 23 23 22 22 21 21 20 20 20 20 20 20 21 23 24 27 30
40 40 41 40 40 39 39 39 39 39 39 39 39 38 37 36 35 34 34 33 32 32 31 30 30 30 29 29 29 29 28 28 27 27 26 26 25 25 25 24 24 23 22 22 21 21 20 20 19 18 19 19
39 39 39 39 38 38 38 38 38 39 38 38 38 38 38 37 36 35 35 34 33 33 32 32 31 31 31 30 30 30 30 30 30 30 29 29 29 28 28 27 28 27 26 26 24 24 23 22 22 21 20 19
33 33 33 32 32 32 32 32 32 32 31 31 31 31 30 30 30 29 29 28 28 28 27 27 26 27 26 26 27 26 27 27 27 27 27 27 27 27 27 27 27 28 27 27 26 26 26 25 25 24 22 21
30 30 30 30 30 30 29 29 29 28 28 27 27 26 25 25 24 23 23 22 22 22 21 21 21 21 21 20 21 21 21 21 21 22 21 21 22 21 22 22 22 23 23 24 24 24 24 24 24 24 23 23
33 33 33 33 33 33 32 31 30 29 29 28 27 26 25 24 23 21 21 20 19 19 17 17 16 16 16 15 16 16 16 16 16 16 17 16 17 17 17 17 17 17 17 18 19 20 20 20 20 20 21 21
Wind_Speed
73 74 75 75 76 77 78 78 79 79 79 79 80 80 80 80 80 81 81 81 81 81 81 81 81 81 81 81 82 82 82 83 84 84 84 84 84 85 85 86 86 86 86 86 86 87 87 87 87 87 86 86
73 74 75 76 77 78 79 80 81 81 82 82 82 82 83 83 83 83 84 84 84 84 84 84 85 85 85 85 85 85 85 86 87 87 88 88 88 88 88 89 89 89 89 89 89 90 90 90 90 90 90 90
75 76 77 78 79 79 80 81 82 83 83 84 85 85 85 86 86 86 86 86 87 87 87 87 87 87 87 87 87 88 88 89 89 90 90 91 91 91 91 91 92 93 93 92 92 92 93 93 93 93 93 93
79 79 80 80 81 82 82 83 83 84 85 85 86 87 87 88 88 89 89 89 89 90 90 90 90 90 90 91 91 91 92 92 92 93 93 94 94 94 94 94 95 96 96 96 96 96 96 96 96 96 96 96
83 83 84 84 84 85 85 86 86 86 87 88 88 89 89 90 90 91 91 92 92 92 92 93 93 93 94 94 95 95 95 96 96 96 96 97 97 97 97 97 98 98 99 100 100 100 100 99 99 99 99 99
87 87 87 88 88 88 89 89 90 90 91 91 91 92 92 92 93 93 94 94 94 95 95 96 96 96 96 97 97 98 98 98 98 99 99 100 100 100 100 101 101 101 101 103 104 104 104 104 103 103 103 103
91 91 91 91 91 92 92 93 93 94 94 95 95 96 96 97 97 97 97 98 98 98 99 99 99 100 100 100 100 100 100 100 101 101 101 102 102 102 103 103 104 104 104 105 106 107 108 108 107 107 107 106
93 93 94 94 94 95 95 95 96 97 97 98 98 99 100 100 101 101 101 102 102 102 102 103 103 103 103 103 103 103 103 103 103 103 103 104 104 104 105 106 106 107 107 108 108 109 111 111 111 111 111 110
94 94 95 96 96 97 97 98 98 99 100 100 101 102 102 103 103 104 104 105 105 105 105 106 106 106 106 106 107 107 107 107 107 106 106 106 107 107 107 108 109 109 110 110 111 112 113 114 115 115 115 114
94 94 95 96 97 98 99 99 100 101 101 102 103 103 104 105 105 106 107 107 108 108 108 109 109 109 109 109 110 110 110 110 110 110 110 110 110 110 110 111 111 112 112 113 114 114 115 116 117 117 118 118
94 95 96 97 98 99 99 100 101 102 103 103 104 105 106 106 107 108 108 109 110 110 111 111 112 112 112 113 113 113 113 113 113 113 114 114 114 114 114 114 114 115 115 116 116 117 118 118 119 120 120 120
96 97 98 99 99 100 101 102 103 104 104 105 106 107 108 108 109 110 110 111 111 112 113 113 114 115 115 116 116 116 117 117 117 117 117 117 117 117 118 118 118 118 118 119 119 120 120 121 122 122 123 123
98 99 100 101 102 103 104 105 105 106 107 108 108 109 110 110 111 112 112 113 114 114 115 116 116 117 117 118 119 119 120 120 120 121 121 121 121 121 121 121 121 122 122 122 123 123 123 124 124 125 125 125
100 101 102 103 104 105 106 107 108 109 110 111 112 112 113 114 114 115 115 116 116 117 117 118 119 119 120 120 121 121 122 122 123 123 124 124 124 125 125 125 125 125 126 126 126 127 127 127 128 128 129 129
101 102 103 104 106 107 108 109 110 112 113 114 115 116 117 117 118 118 119 120 120 121 121 121 122 122 123 123 123 124 124 125 125 125 126 126 127 127 128 128 129 129 129 129 130 130 130 131 131 132 133 133
103 104 105 106 108 109 110 111 112 113 114 115 116 118 118 119 120 121 122 123 123 124 125 125 126 126 127 127 127 128 128 128 128 129 129 129 130 130 130 131 131 132 132 133 133 133 134 134 135 135 136 136
106 107 109 110 111 112 113 114 115 116 117 118 119 120 121 121 122 123 124 124 125 126 127 127 128 129 129 130 130 131 131 132 132 133 133 133 133 134 134 134 134 134 135 135 136 136 137 137 138 138 139 139
109 110 111 112 113 114 116 117 117 118 119 120 121 122 123 124 125 126 126 127 128 129 129 130 131 131 132 132 133 133 134 134 135 135 136 136 137 137 137 138 138 138 138 138 139 139 139 140 140 141 141 142
111 112 113 115 116 117 118 119 120 121 122 123 124 125 126 127 128 129 130 131 131 132 133 134 134 135 135 136 136 137 137 138 138 139 139 139 140 140 140 141 141 142 142 142 143 143 143 143 143 143 144 144
114 115 116 117 118 119 121 122 123 124 125 126 127 128 129 130 131 132 133 134 135 136 137 137 138 139 139 140 141 141 142 142 142 143 143 143 144 144 144 144 144 145 145 145 146 146 146 146 147 147 147 147
116 118 119 120 121 123 124 125 126 127 128 129 130 131 132 133 134 135 136 137 138 139 139 140 141 142 142 143 144 144 145 146 146 147 147 148 148 148 149 149 149 149 149 149 149 150 150 150 150 150 150 150
119 120 121 122 123 124 125 126 127 128 129 129 130 131 132 133 135 136 137 138 139 140 141 142 143 143 144 145 146 147 147 148 149 149 150 151 151 152 152 152 153 153 153 154 154 154 154 154 154 154 153 153
117 118 118 119 120 121 121 122 123 124 125 126 127 128 129 130 131 132 133 135 136 137 138 139 140 141 142 143 144 145 146 147 148 149 150 151 152 153 154 154 155 156 156 157 158 158 159 159 159 159 158 158
111 112 113 113 114 115 116 118 119 120 121 122 123 124 125 126 127 128 129 130 131 132 133 134 135 136 137 138 139 140 141 143 144 145 146 148 149 150 152 153 154 155 157 158 159 160 161 162 162 162 162 162
107 108 109 111 112 114 115 116 117 118 119 120 122 123 124 126 127 128 128 129 130 131 131 132 133 134 134 135 136 137 138 139 140 141 142 143 144 145 146 148 149 151 153 154 156 158 160 162 163 164 165 165
106 108 109 111 112 113 114 116 117 118 119 120 122 123 125 126 127 128 129 130 130 131 132 132 133 133 134 135 136 136 137 138 138 139 140 141 141 142 143 144 145 147 148 149 150 152 154 157 159 161 163 165
105 106 108 109 110 111 112 114 115 116 117 118 120 122 123 125 126 127 128 129 130 131 132 132 133 134 134 135 136 137 137 138 139 139 140 141 141 142 142 143 144 145 146 147 148 149 150 151 153 155 157 159
101 102 103 105 106 107 109 110 111 113 114 115 117 119 120 122 123 124 125 126 128 129 130 130 131 132 133 134 135 136 137 138 139 140 141 141 142 143 143 144 144 145 146 147 147 147 148 149 150 151 152 154
95 96 98 99 101 102 104 105 107 108 110 111 112 114 116 117 119 120 121 122 124 125 126 127 128 129 130 131 132 133 134 136 137 138 139 140 141 142 143 144 145 146 147 147 148 148 148 149 149 150 150 151
89 91 93 95 96 98 99 101 102 104 105 106 108 109 111 112 114 115 116 117 118 119 121 122 123 124 125 126 127 128 130 132 133 134 135 137 138 139 141 142 143 144 145 146 148 148 149 149 150 150 150 150
85 87 89 90 92 94 96 97 99 100 102 103 104 106 107 108 109 110 111 112 113 114 114 115 116 117 118 119 120 121 123 125 126 128 130 131 133 135 136 138 139 140 142 143 144 146 147 148 149 149 150 150
Wind_Direction
249 249 250 250 250 251 251 252 252 252 252 251 251 251 250 250 249 249 249 249 248 248 247 248 248 248 248 248 248 248 247 247 247 247 247 247 247 247 246 246 246 246 246 247 247 246 246 246 246 246 247 247
251 250 251 251 251 251 251 251 252 252 253 253 253 252 252 252 251 251 250 250 250 249 249 249 249 249 249 249 249 249 249 248 248 248 248 248 247 247 246 246 246 246 246 246 246 246 246 246 246 247 247 247
253 252 252 252 252 252 252 252 252 252 252 252 253 253 253 253 252 252 252 251 251 251 250 250 250 250 249 249 249 249 249 249 249 249 249 249 249 248 247 247 246 246 246 246 246 246 246 246 246 246 247 247
254 254 254 254 254 253 253 253 253 252 252 252 253 253 253 253 253 253 252 252 252 252 251 251 251 251 251 250 250 250 250 250 250 250 250 250 250 249 249 248 247 247 247 246 246 246 245 245 245 246 246 247
255 255 255 255 255 255 255 254 254 254 254 253 253 253 253 253 253 253 253 252 252 252 252 252 251 251 251 251 251 251 250 250 250 250 250 250 250 250 249 249 248 248 247 247 247 246 246 246 245 245 245 246
256 256 255 255 255 255 255 255 255 255 255 255 254 254 254 254 254 254 253 253 253 253 252 252 252 252 252 251 251 251 251 251 250 250 250 250 250 250 250 250 249 249 248 247 247 247 247 246 246 246 246 246
257 257 257 256 256 256 256 256 256 256 256 256 256 255 255 255 255 254 254 254 254 254 253 253 253 253 252 252 252 252 251 251 251 250 250 250 250 250 250 250 250 250 249 248 248 247 247 247 247 247 247 247
258 258 258 258 258 257 257 257 257 257 257 256 256 256 256 256 256 255 255 255 254 254 254 254 254 253 253 253 252 252 252 251 251 251 251 250 250 250 250 250 250 250 250 249 249 248 248 247 247 247 247 247
259 259 259 259 259 258 258 258 258 258 257 257 257 257 257 257 256 256 256 256 255 255 255 254 254 254 254 253 253 253 252 252 252 251 251 251 250 250 250 250 250 250 250 250 249 249 248 248 247 247 247 247
261 261 260 260 260 260 259 259 259 259 258 258 258 258 258 257 257 257 257 256 256 256 256 255 255 254 254 254 253 253 253 252 252 252 251 251 251 250 250 249 249 249 249 249 249 249 249 248 248 248 247 247
262 262 262 262 261 261 261 260 260 260 260 259 259 259 259 259 258 258 258 258 257 257 257 256 256 255 255 255 254 254 253 253 252 252 252 251 251 251 250 250 250 249 249 249 249 249 249 249 248 248 248 248
264 264 264 264 263 263 262 262 262 261 261 261 260 260 260 259 259 259 259 259 258 258 258 257 257 257 256 256 255 255 255 254 253 253 252 252 251 251 251 250 250 250 249 249 249 249 249 249 248 248 248 248
266 265 265 265 265 265 264 264 264 263 263 262 262 262 261 261 260 260 260 260 259 259 258 258 258 258 257 257 257 256 256 255 255 254 254 253 253 252 251 251 250 250 250 250 249 249 249 249 249 249 248 248
266 266 266 266 266 266 265 265 265 265 264 264 263 263 263 262 262 262 261 261 260 260 260 259 259 258 258 258 257 257 257 256 256 256 255 255 254 253 253 252 251 251 250 250 250 249 249 249 249 249 249 249
267 267 266 266 266 266 266 266 265 265 265 264 264 264 263 263 263 262 262 262 261 261 261 260 260 260 259 259 258 258 257 257 257 256 256 255 255 255 254 253 253 252 251 251 250 250 250 250 249 249 249 249
267 267 267 267 267 267 267 266 266 266 266 265 265 265 264 264 264 263 263 262 262 262 261 261 261 260 260 260 259 259 259 258 258 257 257 256 256 255 255 255 254 254 253 252 252 251 250 250 250 250 250 250
269 269 268 268 268 268 268 268 267 267 267 267 266 266 266 265 265 265 264 264 263 263 263 262 262 261 261 260 260 260 259 259 258 258 258 257 257 256 255 255 255 254 254 254 253 252 252 251 251 250 250 250
270 270 270 270 269 269 269 269 268 268 268 268 268 267 267 267 266 266 266 265 265 265 264 264 263 263 262 262 261 261 260 260 260 259 259 258 258 257 256 256 255 255 254 254 254 253 253 252 252 251 251 251
270 270 270 270 269 269 269 269 268 268 268 268 267 267 267 267 266 266 266 266 265 265 265 265 264 264 264 263 263 263 262 262 261 261 260 260 259 258 258 257 257 256 256 255 254 254 253 253 252 252 252 251
271 271 271 270 270 270 270 269 269 269 268 268 268 267 267 267 267 266 266 266 265 265 265 265 265 264 264 264 264 263 263 263 262 262 261 261 261 260 259 259 258 258 257 257 256 255 255 254 253 253 252 252
273 273 273 272 272 272 271 271 271 270 270 269 269 269 269 268 268 268 267 267 266 266 266 266 265 265 265 264 264 264 263 263 263 262 262 262 261 261 260 260 260 259 259 258 257 257 256 256 255 254 253 253
275 274 274 274 273 273 273 273 272 272 272 271 271 270 270 270 269 269 268 268 268 267 267 267 266 266 266 265 265 265 264 264 263 263 263 262 262 261 261 260 260 260 259 259 258 258 258 257 256 256 255 255
275 275 274 274 274 274 274 273 273 273 273 272 272 272 271 271 271 270 270 269 269 268 268 268 268 267 267 266 266 266 265 265 264 264 263 263 262 262 261 261 260 260 259 259 259 258 258 258 257 257 256 256
275 275 275 275 274 274 274 274 274 274 273 273 273 273 273 272 272 271 271 270 270 270 269 269 269 268 268 267 267 267 266 266 265 265 264 264 263 263 262 262 261 261 260 259 259 259 258 258 258 257 257 256
275 275 275 275 275 274 274 274 274 274 274 274 273 273 273 272 272 272 271 271 271 270 270 269 269 269 269 268 268 267 267 267 266 266 265 265 264 264 263 263 262 261 261 260 260 259 259 258 258 257 257 257
275 275 275 275 274 274 274 274 274 274 274 273 273 273 273 272 272 272 272 271 271 271 270 270 270 269 269 269 268 268 268 267 267 266 266 265 265 265 264 264 263 262 262 261 261 260 260 259 259 258 257 257
275 275 275 275 275 275 275 275 274 274 274 274 273 273 273 273 273 272 272 272 272 271 271 271 270 270 269 269 269 268 268 268 267 267 266 266 266 265 265 264 264 263 263 262 262 261 260 260 260 259 258 258
276 276 276 276 276 276 276 275 275 275 274 274 274 274 273 273 273 273 273 272 272 272 272 271 271 270 270 270 269 269 269 268 268 267 267 267 266 266 265 265 264 264 264 263 263 262 262 261 260 260 259 259
278 278 278 278 277 277 277 276 276 275 275 275 274 274 274 274 273 273 273 273 272 272 272 271 271 271 270 270 270 269 269 268 268 268 267 267 267 266 266 265 265 265 264 264 264 263 263 262 262 261 260 260
280 280 280 279 279 279 278 278 277 277 277 276 276 275 275 274 274 274 273 273 272 272 272 271 271 270 270 270 269 269 268 268 268 268 267 267 267 266 266 266 265 265 265 264 264 264 263 263 262 262 261 261
282 282 282 282 281 281 280 279 279 279 278 278 277 277 276 276 276 275 275 275 274 274 273 272 272 271 271 270 269 268 268 267 267 267 267 266 266 266 266 265 265 265 265 264 264 264 264 263 263 262 262 261